QPF
0.00 0.00 0.00 0.00 0.00 0.00 0.03 0.03 0.01 0.00 0.00 0.00 0.00 0.00 0.00 0.00 0.00 0.00 0.00 0.00 0.00 0.00 0.00 0.00 0.00 0.00 0.00 0.00 0.00 0.00 0.00 0.00 0.00 0.00 0.06 0.06 0.04 0.00 0.00 0.00 0.07 0.07 0.00 0.01
0.00 0.00 0.00 0.00 0.00 0.00 0.00 0.00 0.00 0.00 0.00 0.00 0.00 0.00 0.00 0.00 0.00 0.00 0.00 0.00 0.00 0.00 0.00 0.00 0.00 0.00 0.00 0.00 0.00 0.00 0.00 0.00 0.00 0.00 0.01 0.18 0.04 0.02 0.01 0.01 0.04 0.02 0.00 0.02
0.00 0.00 0.00 0.00 0.00 0.00 0.00 0.00 0.00 0.00 0.00 0.00 0.00 0.00 0.02 0.01 0.02 0.00 0.00 0.00 0.00 0.00 0.00 0.00 0.00 0.00 0.00 0.00 0.00 0.00 0.00 0.00 0.00 0.00 0.00 0.08 0.12 0.09 0.04 0.06 0.03 0.01 0.00 0.00
0.00 0.00 0.00 0.00 0.00 0.00 0.00 0.00 0.00 0.00 0.00 0.00 0.00 0.00 0.00 0.03 0.03 0.00 0.00 0.00 0.00 0.00 0.00 0.00 0.00 0.00 0.00 0.00 0.00 0.00 0.00 0.00 0.00 0.00 0.00 0.02 0.03 0.03 0.01 0.00 0.00 0.00 0.00 0.02
0.00 0.00 0.00 0.00 0.00 0.00 0.00 0.00 0.00 0.00 0.00 0.00 0.00 0.00 0.00 0.00 0.17 0.07 0.00 0.00 0.00 0.00 0.00 0.00 0.00 0.00 0.00 0.00 0.00 0.00 0.00 0.00 0.00 0.00 0.01 0.00 0.01 0.00 0.00 0.00 0.01 0.00 0.00 0.01
0.00 0.00 0.00 0.00 0.00 0.00 0.00 0.00 0.00 0.00 0.00 0.00 0.00 0.00 0.00 0.00 0.00 0.02 0.07 0.00 0.00 0.00 0.00 0.00 0.00 0.00 0.00 0.00 0.00 0.00 0.00 0.00 0.00 0.00 0.00 0.00 0.02 0.04 0.02 0.04 0.01 0.00 0.00 0.01
0.00 0.00 0.00 0.00 0.00 0.00 0.00 0.00 0.00 0.00 0.00 0.00 0.00 0.00 0.00 0.00 0.00 0.00 0.00 0.00 0.00 0.00 0.00 0.00 0.00 0.00 0.00 0.00 0.00 0.00 0.00 0.00 0.00 0.00 0.00 0.00 0.01 0.04 0.04 0.02 0.00 0.00 0.00 0.00
0.00 0.00 0.00 0.00 0.00 0.00 0.00 0.00 0.00 0.00 0.00 0.00 0.00 0.00 0.00 0.00 0.00 0.00 0.00 0.00 0.00 0.00 0.00 0.00 0.00 0.00 0.00 0.00 0.00 0.00 0.00 0.00 0.00 0.00 0.00 0.00 0.00 0.00 0.01 0.00 0.00 0.00 0.00 0.00
0.00 0.00 0.00 0.00 0.00 0.00 0.00 0.00 0.00 0.00 0.00 0.00 0.00 0.00 0.00 0.00 0.01 0.00 0.00 0.00 0.00 0.00 0.00 0.00 0.00 0.00 0.00 0.00 0.00 0.00 0.00 0.00 0.00 0.00 0.00 0.00 0.00 0.02 0.03 0.03 0.01 0.00 0.00 0.00
0.00 0.00 0.00 0.00 0.00 0.00 0.00 0.00 0.00 0.00 0.00 0.00 0.00 0.00 0.00 0.00 0.00 0.00 0.00 0.00 0.00 0.00 0.00 0.00 0.00 0.00 0.00 0.00 0.00 0.00 0.00 0.00 0.00 0.00 0.00 0.00 0.00 0.01 0.05 0.02 0.03 0.03 0.02 0.00
0.00 0.00 0.00 0.00 0.00 0.00 0.00 0.00 0.00 0.00 0.00 0.00 0.00 0.00 0.00 0.00 0.00 0.00 0.00 0.00 0.00 0.00 0.00 0.00 0.00 0.00 0.00 0.00 0.00 0.00 0.00 0.00 0.00 0.00 0.00 0.00 0.00 0.00 0.01 0.00 0.02 0.04 0.01 0.00
0.00 0.00 0.00 0.00 0.00 0.00 0.00 0.00 0.00 0.00 0.00 0.00 0.00 0.00 0.00 0.00 0.00 0.00 0.00 0.00 0.00 0.00 0.00 0.00 0.00 0.00 0.00 0.00 0.00 0.00 0.00 0.00 0.00 0.00 0.00 0.00 0.00 0.00 0.00 0.00 0.01 0.01 0.00 0.00
0.00 0.00 0.00 0.00 0.00 0.00 0.00 0.00 0.00 0.00 0.00 0.00 0.00 0.00 0.00 0.00 0.00 0.00 0.00 0.00 0.00 0.00 0.00 0.00 0.00 0.00 0.00 0.00 0.00 0.00 0.00 0.00 0.00 0.00 0.00 0.00 0.00 0.00 0.00 0.00 0.00 0.00 0.00 0.00
0.00 0.00 0.00 0.00 0.00 0.00 0.00 0.00 0.00 0.00 0.00 0.00 0.00 0.00 0.00 0.00 0.00 0.00 0.00 0.00 0.00 0.00 0.00 0.00 0.00 0.00 0.00 0.00 0.00 0.00 0.00 0.00 0.00 0.00 0.00 0.00 0.00 0.00 0.00 0.00 0.00 0.00 0.00 0.00
0.00 0.00 0.00 0.00 0.00 0.00 0.00 0.00 0.00 0.00 0.00 0.00 0.00 0.00 0.00 0.00 0.00 0.00 0.00 0.00 0.00 0.00 0.00 0.00 0.00 0.00 0.00 0.00 0.00 0.00 0.00 0.00 0.00 0.00 0.00 0.00 0.00 0.00 0.00 0.00 0.00 0.00 0.00 0.00
0.00 0.00 0.00 0.00 0.00 0.00 0.00 0.00 0.00 0.00 0.00 0.00 0.00 0.00 0.00 0.00 0.00 0.00 0.00 0.00 0.00 0.00 0.00 0.00 0.00 0.00 0.00 0.00 0.00 0.00 0.00 0.00 0.00 0.00 0.00 0.00 0.00 0.00 0.00 0.00 0.00 0.00 0.00 0.00
0.00 0.00 0.00 0.00 0.00 0.00 0.00 0.00 0.00 0.00 0.00 0.00 0.00 0.00 0.00 0.00 0.00 0.00 0.00 0.00 0.00 0.00 0.00 0.00 0.00 0.00 0.00 0.00 0.00 0.00 0.00 0.00 0.00 0.00 0.00 0.00 0.00 0.00 0.00 0.00 0.00 0.00 0.00 0.00
0.00 0.00 0.00 0.00 0.00 0.00 0.00 0.00 0.00 0.00 0.00 0.00 0.00 0.00 0.00 0.00 0.00 0.00 0.00 0.00 0.00 0.00 0.00 0.00 0.00 0.00 0.00 0.00 0.00 0.00 0.00 0.00 0.00 0.00 0.00 0.00 0.00 0.00 0.01 0.00 0.00 0.00 0.00 0.00
0.00 0.00 0.00 0.00 0.00 0.00 0.00 0.00 0.00 0.00 0.00 0.00 0.00 0.00 0.00 0.02 0.01 0.01 0.01 0.01 0.00 0.00 0.00 0.00 0.00 0.00 0.00 0.00 0.00 0.00 0.00 0.00 0.00 0.00 0.00 0.00 0.00 0.01 0.01 0.01 0.00 0.00 0.00 0.00
0.00 0.00 0.00 0.00 0.00 0.00 0.00 0.00 0.00 0.00 0.00 0.00 0.00 0.01 0.25 0.25 0.08 0.02 0.06 0.05 0.01 0.00 0.00 0.00 0.00 0.00 0.00 0.00 0.00 0.00 0.00 0.00 0.00 0.00 0.00 0.00 0.00 0.00 0.04 0.01 0.01 0.00 0.00 0.00
0.00 0.00 0.00 0.00 0.00 0.00 0.00 0.00 0.00 0.00 0.00 0.00 0.00 0.00 0.00 0.01 0.00 0.00 0.00 0.01 0.00 0.00 0.00 0.00 0.00 0.00 0.00 0.00 0.00 0.00 0.00 0.00 0.00 0.00 0.00 0.02 0.01 0.05 0.05 0.02 0.02 0.01 0.00 0.00
0.00 0.00 0.00 0.00 0.00 0.00 0.00 0.00 0.00 0.00 0.00 0.00 0.00 0.00 0.00 0.00 0.00 0.00 0.00 0.00 0.00 0.00 0.00 0.01 0.02 0.00 0.00 0.00 0.00 0.00 0.00 0.00 0.00 0.00 0.01 0.00 0.02 0.13 0.11 0.06 0.03 0.00 0.00 0.00
0.00 0.00 0.00 0.00 0.00 0.00 0.00 0.00 0.00 0.00 0.00 0.00 0.00 0.00 0.00 0.00 0.00 0.00 0.01 0.00 0.00 0.00 0.00 0.00 0.02 0.03 0.07 0.03 0.01 0.00 0.00 0.00 0.04 0.07 0.07 0.05 0.12 0.12 0.10 0.07 0.02 0.00 0.00 0.00
0.00 0.00 0.00 0.00 0.00 0.00 0.00 0.00 0.00 0.00 0.00 0.00 0.00 0.00 0.00 0.00 0.00 0.00 0.00 0.00 0.00 0.00 0.00 0.00 0.00 0.00 0.00 0.02 0.03 0.02 0.00 0.00 0.02 0.02 0.04 0.10 0.16 0.09 0.11 0.04 0.01 0.00 0.00 0.00
0.00 0.00 0.00 0.00 0.00 0.00 0.00 0.00 0.00 0.00 0.00 0.00 0.00 0.00 0.00 0.00 0.00 0.00 0.00 0.00 0.00 0.00 0.00 0.00 0.00 0.01 0.01 0.01 0.00 0.00 0.01 0.01 0.03 0.05 0.04 0.15 0.13 0.15 0.12 0.03 0.02 0.00 0.00 0.00
0.00 0.00 0.00 0.00 0.00 0.00 0.00 0.00 0.00 0.00 0.00 0.00 0.00 0.00 0.00 0.00 0.00 0.00 0.00 0.00 0.00 0.03 0.01 0.01 0.00 0.01 0.03 0.01 0.00 0.00 0.03 0.02 0.05 0.07 0.14 0.16 0.16 0.11 0.05 0.01 0.01 0.00 0.00 0.00
MSLP
997.31 997.16 996.66 996.28 996.37 999.16 1001.42 1001.56 1001.22 998.83 996.49 996.50 996.41 996.53 997.14 998.32 999.17 999.82 1000.30 1001.02 1001.59 1002.19 1002.87 1003.61 1004.59 1005.34 1005.71 1006.62 1007.68 1008.76 1009.56 1010.50 1011.31 1012.45 1013.57 1013.52 1013.36 1013.36 1013.44 1013.48 1013.33 1013.97 1014.06 1014.28
997.11 996.25 996.20 995.87 995.74 997.48 998.51 998.32 997.39 995.53 995.56 995.28 995.18 995.51 996.31 997.54 998.26 998.82 999.53 1000.02 1000.58 1001.38 1002.04 1003.01 1004.04 1004.68 1005.57 1006.35 1007.35 1008.32 1009.14 1010.12 1010.81 1012.11 1012.10 1012.75 1013.19 1012.82 1013.02 1013.08 1013.50 1013.70 1014.00 1014.33
996.50 995.84 995.45 995.26 995.35 995.41 995.39 995.34 995.01 994.70 994.70 994.42 994.53 995.46 996.67 998.00 998.17 998.47 998.77 999.33 999.90 1000.43 1001.18 1002.38 1003.33 1004.16 1005.03 1006.03 1007.00 1007.99 1008.92 1009.66 1010.34 1011.09 1011.73 1012.49 1013.53 1012.92 1013.34 1013.57 1013.97 1014.16 1014.30 1014.45
996.30 995.71 995.21 994.67 994.63 994.72 994.60 994.42 994.33 994.53 994.72 994.22 994.17 994.58 997.00 998.06 999.52 998.59 998.55 998.30 999.16 999.84 1000.37 1001.50 1002.70 1003.61 1004.50 1005.59 1006.71 1007.56 1008.46 1009.27 1010.02 1010.89 1011.45 1012.24 1012.85 1013.00 1013.01 1013.33 1013.67 1014.14 1014.23 1014.27
995.98 995.43 995.06 994.58 994.56 994.64 994.60 994.59 994.58 994.46 994.55 994.52 994.44 994.54 995.85 998.67 1000.06 1000.85 998.16 997.72 997.92 998.84 999.70 1000.42 1001.57 1002.70 1003.67 1004.87 1006.11 1007.13 1008.09 1008.88 1009.60 1010.39 1010.92 1011.55 1011.94 1012.18 1012.52 1013.01 1013.64 1014.15 1014.14 1014.04
995.95 995.38 995.02 994.72 994.67 994.72 995.06 995.02 994.89 994.84 994.67 994.62 994.49 994.34 994.58 996.34 997.05 998.09 998.18 997.92 996.69 997.22 998.41 999.42 1000.51 1001.68 1002.82 1003.88 1005.24 1006.38 1007.54 1008.40 1009.23 1009.94 1010.38 1010.88 1011.42 1012.01 1012.18 1012.71 1013.37 1013.72 1013.86 1014.16
995.95 995.66 995.28 995.51 995.45 995.44 995.17 995.02 994.85 994.91 994.61 994.05 993.65 993.35 993.21 995.02 995.03 996.58 996.31 996.12 995.77 996.03 997.37 998.58 999.59 1000.55 1001.86 1002.87 1004.18 1005.42 1006.79 1007.87 1008.72 1009.52 1010.12 1010.45 1010.87 1011.54 1011.96 1012.35 1012.75 1012.90 1013.32 1013.66
995.53 994.74 994.46 994.78 995.20 995.39 995.04 995.02 994.82 994.59 994.37 993.69 992.93 992.49 993.23 994.42 994.95 994.68 993.97 994.46 994.08 994.69 995.88 997.26 998.35 999.60 1000.92 1002.01 1003.24 1004.49 1006.00 1007.22 1008.18 1008.91 1009.61 1010.16 1010.59 1011.01 1011.52 1011.84 1012.08 1012.45 1012.92 1013.38
996.31 995.37 994.41 994.39 994.32 995.12 995.33 995.24 995.05 994.61 994.23 993.77 993.20 992.33 992.68 993.37 993.95 996.87 992.69 992.74 992.90 993.49 994.34 996.25 997.68 998.84 1000.05 1001.17 1002.49 1003.63 1005.24 1006.49 1007.45 1008.28 1009.09 1009.84 1010.26 1010.65 1010.84 1011.38 1011.80 1012.27 1012.81 1013.42
997.64 996.56 995.61 994.99 994.95 995.38 995.66 995.67 995.30 994.84 994.67 994.22 993.69 992.90 992.25 993.38 994.04 992.77 991.85 991.89 992.49 993.13 993.65 995.22 996.68 998.03 999.30 1000.41 1001.79 1003.12 1004.42 1005.69 1006.68 1007.72 1008.47 1009.06 1009.57 1010.18 1010.68 1011.18 1011.68 1012.12 1012.78 1013.21
998.16 997.40 996.70 995.84 995.18 994.96 995.07 995.38 995.59 995.56 994.93 994.06 993.47 992.61 991.72 992.44 992.98 992.23 991.46 992.08 992.43 993.02 993.62 994.54 995.85 997.19 998.66 999.85 1000.97 1002.45 1003.88 1005.15 1006.24 1007.19 1007.75 1008.37 1008.99 1009.71 1010.37 1011.00 1011.60 1012.20 1012.80 1013.36
999.09 998.56 997.35 996.16 995.30 995.05 994.74 995.05 994.92 994.59 995.00 994.74 994.12 992.83 991.80 992.17 991.72 991.87 992.10 992.72 993.08 993.41 993.53 994.46 995.41 996.72 998.11 999.35 1000.34 1001.63 1003.26 1004.54 1005.54 1006.29 1007.04 1007.75 1008.47 1009.20 1009.92 1010.56 1011.37 1012.18 1013.06 1013.80
1000.76 999.82 998.57 997.09 996.51 996.23 995.94 995.77 995.64 994.95 994.47 994.14 993.67 992.76 991.82 991.77 991.92 992.06 992.19 992.61 993.14 993.69 994.22 994.46 994.97 996.06 997.48 998.86 999.94 1001.05 1002.43 1003.85 1004.91 1005.64 1006.38 1007.16 1007.92 1008.67 1009.49 1010.46 1011.38 1012.29 1013.04 1013.78
1002.10 1001.14 1000.03 998.81 997.62 997.81 997.34 996.90 996.60 995.77 994.99 994.51 993.82 993.15 992.63 992.31 992.23 992.33 992.70 993.45 993.92 994.24 994.70 995.14 995.22 995.74 996.82 998.06 999.41 1000.68 1001.88 1003.12 1004.29 1005.08 1005.85 1006.69 1007.47 1008.15 1009.10 1010.13 1011.05 1011.90 1012.74 1013.46
1001.65 1000.98 1000.34 999.60 998.96 998.46 997.96 997.55 996.93 996.47 995.88 995.26 994.59 993.99 993.57 993.31 993.19 993.23 993.80 994.18 994.62 995.03 995.27 995.45 995.55 995.62 996.36 997.61 998.96 1000.28 1001.39 1002.59 1003.75 1004.57 1005.32 1006.12 1006.96 1007.86 1008.84 1009.85 1010.79 1011.77 1012.60 1013.40
1001.11 1000.76 1000.66 1000.21 999.75 998.86 998.03 997.58 997.19 996.70 996.28 995.67 995.24 994.72 994.29 993.87 993.91 994.16 994.41 994.89 995.51 996.04 996.08 995.96 995.70 995.71 996.23 997.24 998.65 999.86 1000.76 1001.92 1003.13 1004.05 1004.76 1005.59 1006.63 1007.61 1008.66 1009.93 1011.02 1011.86 1012.67 1013.43
1001.41 1001.15 1001.02 1000.46 1000.00 999.08 998.19 997.39 996.66 995.98 995.83 995.72 995.48 995.43 995.35 994.31 994.45 994.47 994.86 995.32 996.03 996.51 996.48 996.44 996.10 995.55 995.74 996.82 998.18 999.52 1000.58 1001.47 1002.52 1003.58 1004.54 1005.47 1006.53 1007.66 1008.87 1009.85 1010.87 1011.85 1012.62 1013.32
1001.07 1001.15 1001.19 1000.65 1000.32 999.18 997.90 997.00 996.45 996.10 995.57 995.24 995.81 996.41 998.10 997.91 996.29 995.88 996.06 996.37 997.02 997.18 996.86 996.58 996.35 995.89 995.26 995.95 997.35 999.05 1000.28 1001.18 1002.11 1003.16 1004.44 1005.63 1006.74 1007.71 1008.80 1009.77 1010.69 1011.41 1012.17 1012.85
1000.37 1000.71 1000.64 1000.50 999.88 998.94 997.84 996.88 996.30 996.10 995.99 996.37 996.76 998.66 999.92 999.52 999.45 996.83 997.72 998.42 998.11 998.10 997.49 996.52 995.98 995.88 995.39 995.11 996.55 998.45 1000.01 1001.16 1002.19 1003.15 1004.47 1005.41 1006.28 1007.51 1008.71 1009.80 1010.35 1011.10 1011.89 1012.82
999.25 999.67 1000.15 1000.18 999.81 998.82 997.93 997.04 996.58 996.82 997.00 997.44 998.22 999.76 1000.42 1000.66 1002.71 1000.32 1001.00 999.92 999.98 999.62 998.96 998.21 997.13 995.98 995.59 995.64 996.72 998.16 999.54 1000.87 1002.44 1003.58 1004.66 1005.57 1006.46 1007.43 1008.90 1009.92 1010.84 1011.60 1012.33 1012.79
999.48 999.71 999.94 999.63 999.17 998.67 997.88 997.41 997.03 997.40 998.18 998.55 999.30 1000.04 1000.99 1001.18 1000.35 1000.05 999.96 999.40 1000.32 1000.56 1000.29 999.59 998.47 997.36 996.23 996.22 997.45 998.61 999.65 1000.70 1002.07 1003.78 1005.09 1006.02 1006.98 1008.50 1009.57 1010.18 1010.82 1011.42 1012.27 1012.87
1000.02 1000.08 999.71 999.47 999.03 998.51 998.45 998.08 998.00 998.49 998.35 998.85 999.78 1000.66 1001.35 1001.34 1000.94 1000.24 1000.19 1000.05 1000.59 1000.90 1000.81 1000.17 1000.05 999.33 998.78 997.67 997.90 999.20 1000.16 1001.27 1002.57 1003.85 1005.20 1006.20 1007.08 1007.98 1008.90 1009.51 1010.42 1011.03 1011.81 1012.64
1000.28 1000.23 1000.11 1000.08 999.10 998.69 998.80 999.06 999.20 999.42 998.78 999.03 999.58 1000.25 1001.08 1001.30 1001.25 1001.29 1001.27 1001.09 1000.38 1000.78 1000.95 1001.09 1001.05 1000.93 1000.68 1000.53 1000.23 1000.47 1001.59 1002.23 1003.26 1004.38 1005.34 1006.03 1007.20 1008.37 1009.28 1010.35 1011.06 1011.06 1011.60 1012.14
1001.07 1000.82 1000.41 1000.30 999.87 999.60 999.49 999.65 999.80 999.95 999.70 999.55 999.46 1000.06 1000.60 1000.90 1001.00 1000.97 1001.12 1001.04 1000.53 1000.53 1000.88 1001.36 1001.62 1001.60 1001.70 1001.93 1002.07 1002.23 1002.68 1003.05 1003.65 1004.45 1005.38 1006.23 1006.92 1008.19 1009.37 1010.46 1011.08 1010.82 1011.35 1011.75
1002.16 1001.85 1001.27 1000.68 1000.65 1000.44 1000.23 1000.16 1000.28 1000.60 1000.76 1000.69 1000.56 1000.44 1000.62 1001.05 1001.13 1001.09 1001.04 1000.95 1000.74 1000.28 1000.55 1001.08 1001.54 1002.12 1002.18 1002.38 1002.72 1002.89 1003.18 1003.64 1004.05 1004.62 1005.40 1006.28 1007.36 1008.50 1009.36 1010.06 1010.39 1010.71 1010.63 1011.08
1002.73 1002.07 1001.66 1000.91 1001.31 1001.16 1000.94 1001.13 1001.08 1001.04 1001.19 1001.22 1001.18 1001.12 1000.91 1001.05 1001.08 1001.14 1001.13 1000.75 1000.77 1000.48 1000.11 1000.59 1000.65 1001.86 1002.24 1002.70 1002.79 1003.10 1003.44 1003.60 1004.09 1004.71 1005.51 1006.34 1007.28 1008.33 1009.05 1009.31 1010.10 1010.36 1010.28 1010.67
Thickness
5879 5856 5849 5874 5895 5859 5831 5809 5807 5849 5903 5889 5883 5885 5877 5883 5876 5866 5863 5857 5853 5848 5852 5850 5842 5840 5841 5835 5827 5819 5814 5809 5803 5791 5778 5780 5781 5784 5783 5785 5785 5780 5779 5778
5860 5847 5877 5894 5902 5866 5853 5850 5854 5904 5903 5896 5891 5889 5893 5885 5883 5879 5870 5867 5863 5859 5856 5852 5847 5845 5840 5836 5829 5821 5817 5811 5807 5794 5796 5788 5784 5790 5786 5785 5781 5778 5776 5774
5847 5868 5894 5892 5885 5885 5893 5884 5887 5885 5894 5903 5893 5873 5875 5875 5882 5884 5884 5880 5875 5868 5861 5855 5851 5849 5846 5838 5832 5826 5821 5818 5814 5806 5801 5794 5784 5789 5782 5780 5778 5775 5773 5772
5856 5882 5879 5884 5881 5890 5867 5904 5899 5882 5869 5852 5900 5848 5852 5836 5843 5877 5881 5884 5878 5874 5875 5867 5857 5853 5850 5844 5840 5834 5828 5823 5819 5811 5802 5793 5785 5781 5787 5785 5783 5779 5776 5775
5848 5865 5867 5867 5875 5890 5871 5895 5886 5885 5869 5865 5870 5864 5857 5843 5802 5808 5878 5884 5888 5883 5879 5874 5867 5862 5860 5853 5844 5839 5831 5826 5822 5817 5812 5804 5798 5798 5796 5791 5785 5780 5781 5780
5858 5887 5880 5877 5886 5887 5887 5875 5875 5876 5870 5829 5862 5866 5876 5859 5858 5853 5861 5867 5890 5894 5889 5884 5879 5872 5864 5862 5852 5845 5835 5828 5824 5820 5817 5812 5805 5799 5796 5792 5786 5785 5785 5783
5846 5853 5873 5874 5855 5871 5870 5857 5824 5819 5826 5827 5883 5873 5890 5879 5893 5873 5865 5871 5891 5902 5895 5886 5880 5874 5866 5862 5856 5851 5840 5830 5827 5822 5818 5815 5811 5804 5798 5796 5793 5792 5788 5786
5826 5826 5864 5875 5855 5844 5855 5857 5829 5798 5813 5839 5889 5864 5888 5892 5890 5910 5903 5897 5911 5908 5903 5896 5891 5883 5873 5869 5861 5855 5844 5834 5831 5826 5820 5816 5813 5808 5803 5802 5800 5796 5791 5788
5815 5825 5878 5881 5882 5866 5844 5832 5868 5845 5859 5843 5862 5888 5909 5902 5883 5854 5920 5923 5915 5913 5911 5901 5895 5890 5881 5874 5866 5860 5849 5840 5835 5829 5823 5817 5814 5809 5807 5804 5802 5798 5793 5787
5822 5802 5850 5863 5871 5864 5849 5861 5827 5844 5804 5799 5836 5852 5867 5877 5869 5903 5918 5922 5913 5914 5916 5905 5899 5893 5888 5882 5873 5865 5855 5845 5839 5833 5827 5822 5817 5813 5808 5804 5798 5796 5790 5787
5828 5820 5821 5848 5843 5839 5845 5832 5838 5842 5839 5818 5816 5844 5908 5890 5893 5896 5910 5910 5909 5905 5911 5908 5903 5899 5891 5886 5878 5868 5857 5848 5840 5834 5830 5825 5820 5815 5809 5804 5798 5793 5789 5782
5819 5806 5797 5823 5861 5872 5863 5845 5851 5829 5815 5834 5830 5837 5909 5900 5910 5906 5902 5896 5902 5904 5910 5909 5903 5899 5892 5884 5880 5871 5860 5850 5845 5840 5832 5827 5822 5816 5810 5804 5798 5791 5781 5776
5798 5790 5775 5799 5829 5840 5830 5838 5842 5852 5853 5829 5819 5838 5909 5910 5902 5905 5901 5903 5895 5896 5900 5905 5905 5895 5890 5885 5880 5872 5863 5853 5848 5842 5835 5830 5823 5817 5811 5803 5796 5788 5778 5771
5789 5779 5775 5769 5792 5809 5798 5815 5825 5830 5819 5826 5834 5847 5871 5883 5887 5891 5892 5889 5888 5885 5891 5891 5897 5895 5891 5887 5880 5871 5863 5857 5849 5844 5837 5829 5824 5819 5813 5805 5797 5789 5779 5772
5788 5766 5781 5790 5798 5801 5800 5803 5812 5810 5821 5808 5825 5831 5852 5866 5871 5872 5875 5875 5872 5871 5879 5882 5887 5892 5890 5884 5878 5870 5865 5858 5851 5844 5838 5832 5828 5820 5813 5804 5796 5787 5779 5771
5793 5766 5775 5768 5787 5794 5791 5804 5807 5809 5814 5820 5828 5829 5866 5874 5874 5861 5862 5859 5853 5856 5864 5872 5879 5886 5883 5881 5873 5869 5864 5859 5852 5843 5839 5836 5827 5819 5810 5799 5789 5781 5773 5767
5772 5767 5759 5746 5775 5779 5767 5792 5804 5814 5820 5821 5808 5835 5856 5857 5856 5856 5854 5849 5849 5852 5857 5860 5867 5879 5883 5879 5873 5863 5860 5858 5851 5843 5838 5833 5824 5814 5804 5795 5785 5776 5768 5761
5769 5764 5761 5747 5759 5730 5786 5818 5817 5806 5819 5836 5833 5837 5805 5819 5842 5844 5842 5838 5837 5842 5849 5856 5862 5870 5883 5882 5875 5866 5859 5853 5848 5841 5834 5826 5817 5809 5800 5791 5783 5776 5768 5760
5787 5769 5752 5741 5745 5766 5785 5804 5805 5796 5796 5820 5821 5788 5778 5786 5795 5798 5812 5815 5824 5830 5840 5854 5865 5868 5875 5880 5873 5862 5851 5845 5841 5835 5827 5823 5817 5805 5795 5785 5779 5772 5763 5754
5794 5787 5761 5751 5732 5728 5775 5804 5820 5806 5767 5807 5796 5765 5768 5768 5722 5742 5769 5792 5808 5811 5822 5833 5848 5863 5867 5867 5865 5856 5847 5839 5829 5825 5821 5817 5809 5800 5785 5777 5768 5761 5754 5748
5762 5762 5746 5750 5743 5758 5791 5802 5812 5753 5758 5789 5783 5775 5759 5758 5778 5788 5784 5797 5801 5800 5805 5816 5829 5839 5855 5859 5851 5844 5840 5832 5829 5819 5811 5802 5795 5779 5771 5767 5763 5757 5748 5740
5746 5739 5744 5751 5740 5731 5788 5787 5765 5772 5783 5782 5774 5765 5762 5768 5774 5780 5778 5786 5784 5786 5792 5803 5805 5816 5826 5841 5839 5832 5827 5825 5818 5810 5800 5792 5784 5779 5772 5765 5759 5753 5745 5733
5735 5749 5739 5743 5751 5778 5778 5768 5776 5772 5772 5772 5768 5764 5759 5757 5759 5760 5761 5766 5780 5783 5785 5788 5789 5793 5800 5807 5813 5813 5809 5809 5803 5794 5787 5783 5775 5766 5761 5750 5743 5743 5738 5730
5746 5755 5739 5739 5754 5758 5764 5762 5760 5762 5759 5763 5769 5758 5759 5752 5754 5754 5755 5757 5765 5774 5775 5777 5778 5779 5780 5785 5787 5790 5791 5793 5789 5784 5778 5773 5768 5760 5747 5739 5735 5737 5730 5725
5730 5733 5728 5728 5737 5741 5746 5749 5747 5739 5738 5741 5745 5746 5746 5742 5742 5745 5748 5748 5753 5764 5768 5768 5766 5766 5770 5773 5773 5776 5778 5777 5776 5773 5769 5762 5755 5745 5737 5733 5731 5727 5728 5723
5721 5717 5710 5709 5723 5717 5720 5725 5728 5724 5722 5722 5719 5719 5728 5729 5729 5734 5736 5743 5744 5750 5761 5760 5763 5757 5758 5761 5764 5765 5766 5769 5767 5763 5758 5752 5745 5736 5729 5730 5723 5719 5721 5715